SOYUZ-MS 08

Last updated on Thu Oct 04 2018 01:00:46 GMT+0100 (British Summer Time)

1 43238U 18026A 18275.42675150 .00001750 00000-0 34091-4 0 9994 2 43238 51.6422 204.2981 0003748 230.8661 237.0329 15.53761941135193
UTC large
Height (km)
Speed (km/s)
/
Latitude / Longitude
Inclination (degrees)
Orbital Period (minutes)
Azimuth
Elevation
Range (km)
Doppler Factor

Next 0 passes for location: London (51.5072 / 0.1276)

Sorry there are no passes over London.